星链-30397 (STARLINK-30397 )

导读

STARLINK-30397是美国SpaceX星链互联网卫星星座的一员,于北京时间2023年9月4日发射,归属美国太空探索技术公司。它承担星链网络的低轨通信任务,助力为全球提供高速卫星互联网接入,推动星链星座完成全球覆盖组网,服务民用通信、军事应用等多元场景。

基本信息
目录编号:
57771
目录名称:
STARLINK-30397
国际标识:
2023-134A
轨道中心:
EARTH
卫星名称:
星链-30397
卫星全名:
星链-30397 (STARLINK-30397 )
卫星状态:
在轨 (已飞行1103 天)
发射日期:
2023-09-04 UTC
国别 :
美国 (US)
星等 :
--
该卫星已列入 空间交会检测服务 Space Conjunction Data Service (SCDS) ,当前飞行风险评估等级: 高风险
轨道信息
数据来源 国际轨道数据
星历时间: 2026-09-11T07:46:28+0800
15小时前
查看轨道信息
半长轴: 6861.203km
偏心率: 0.0001616
轨道倾角: 43.005°
近地点辐角 281.560°
升交点赤经 228.231°
平近点角 78.507°
近地点: 481.957km
远地点: 484.175km
周期: 94.267分钟
每日圈数: 15.275746
详细信息
固有亮度:
5
最大亮度:
0.3
卫星平台:
Starlink v2.0 mini
覆盖范围:
全球
运营商:
太空探索技术公司
运营商所在国:
美国
制造商(研发单位):
太空探索技术公司
制造商所在国:
美国
使用方式:
暂无
卫星简介
星链(Starlink)计划是由太空探索技术公司(SpaceX)提出的一个巨型低轨卫星互联网星座项目,计划在2019年至2024年间在太空搭建由约1.2万颗卫星组成的“星链”网络,其中1584颗将部署在地球上空550千米处的近地轨道,并从2020年开始工作。该卫星仍在工作。
2D轨道图
3D轨道图
轨道高度分析图
轨道倾角分析图
轨道综合分析图
查看轨道综合分析图
交会数据列表
事件ID 空间交会对象 最接近时刻(TCA) 交会距离 交会风险概率(CRP) 交会风险指数(CRI) 操作
CDM_260913-045505-777106-647321
2026-09-13T
04:55:14+0000
0.509 km
远距离
1.368283E-4 高风险 0.78
CDM_260913-035405-777106-712121
2026-09-13T
03:54:41+0000
0.407 km
远距离
1.17177E-4 高风险 0.76
CDM_260911-211505-777106-764322
2026-09-11T
21:15:38+0000
0.503 km
远距离
1.035571E-4 高风险 0.75
CDM_260913-084305-777106-741621
2026-09-13T
08:43:52+0000
0.669 km
远距离
4.031284E-5 中风险 0.67
CDM_260913-061505-777106-712121
2026-09-13T
06:15:55+0000
0.616 km
远距离
3.788826E-5 中风险 0.67
CDM_260913-044805-777106-741621
2026-09-13T
04:48:30+0000
0.874 km
远距离
1.683142E-5 中风险 0.6
CDM_260911-172005-777106-764322
2026-09-11T
17:20:15+0000
1.247 km
极远距离
5.786026E-6 低风险 0.5
CDM_260913-133305-777106-647321
2026-09-13T
13:33:04+0000
1.448 km
极远距离
4.994245E-6 低风险 0.49
CDM_260913-150705-777106-647321
2026-09-13T
15:07:13+0000
2.475 km
极远距离
1.251514E-6 低风险 0.37
CDM_260913-031405-777106-741621
2026-09-13T
03:14:21+0000
2.099 km
极远距离
1.130045E-6 低风险 0.36
与全量物体交会距离演化趋势
与全量物体交会风险概率演化趋势